Location: Unspecified
(43.3830°N, 0.0000°E)
Time: 07:17:22
(UTC+00:00)

Vanguard 2 - Pass Details

Date: 21 June 2019
Orbit: 553 x 2938 km, 32.9° (Epoch: 18 July)

Event Time Altitude Azimuth Distance (km) Brightness Sun altitude
Rises 07:34:56 0° 210° (SSW) 3,048 10.3 32.5°
Reaches altitude 10° 07:37:41 10° 190° (S) 2,356 10.0 33.0°
Maximum altitude 07:41:27 18° 147° (SSE) 2,162 10.4 33.7°
Drops below altitude 10° 07:46:21 10° 107° (ESE) 3,226 12.0 34.6°
Sets 07:51:02 0° 91° (E) 4,699 12.6 35.4°
